Regional Weather Roundup
Issued by NWS

Home | Current Version | Previous Version | Text Only | Print | Product List | Glossary Off
Versions: 1 2 3 4 5 6 7 8 9 10 11 12 13 14 15 16 17 18 19 20 21 22 23 24 25 26 27 28 29 30 31 32 33 34 35 36 37 38 39 40 41 42 43 44 45 46 47 48 49 50

000
ASUS43 KLSX 191757
RWRMO

WEATHER SUMMARY FOR MISSOURI
NATIONAL WEATHER SERVICE SPRINGFIELD MO
1200 PM CST THU JAN 19 2017

NOTE: "FAIR" INDICATES FEW OR NO CLOUDS BELOW 12,000 FEET WITH NO
       SIGNIFICANT WEATHER AND/OR OBSTRUCTIONS TO VISIBILITY.
       CURRENT SKY AND/OR WEATHER CONDITIONS ARE NOT AVAILABLE FOR
       CHILLICOTHE AND FARMINGTON.

MOZ001>031-035>038-043-044-053-054-191900-
...NORTHERN AND WESTERN MISSOURI...

CITY           SKY/WX    TMP DP  RH WIND       PRES   REMARKS
KANSAS CTY INT CLOUDY    47  43  86 S8        29.76F
6HR MIN TEMP:  42; 6HR MAX TEMP:  47; 6HR PCP: TRACE;

LEE`S SUMMIT   CLOUDY    46  46 100 SE6       29.76F FOG
6HR MIN TEMP:  43; 6HR MAX TEMP:  46;

ST JOSEPH      CLOUDY    46  45  96 S8        29.77F
6HR MIN TEMP:  41; 6HR MAX TEMP:  46;

CHILLICOTHE      N/A     45  44  97 SE6       29.79F
6HR MIN TEMP:  40; 6HR MAX TEMP:  45;


$$
MOZ066>068-077>081-088>096-101>105-191900-
...SOUTHWEST MISSOURI...

CITY           SKY/WX    TMP DP  RH WIND       PRES   REMARKS
SPRINGFIELD    CLOUDY    49  47  93 S7        29.77F
6HR MIN TEMP:  44; 6HR MAX TEMP:  49; 6HR PCP:  0.02;

JOPLIN         CLOUDY    50  48  93 S9        29.76F
6HR MIN TEMP:  47; 6HR MAX TEMP:  50;

BRANSON        CLOUDY    46  46 100 SE5       29.79F FOG

$$
MOZ032>034-039>042-045>050-055>058-069>072-191900-
...CENTRAL MISSOURI...

CITY           SKY/WX    TMP DP  RH WIND       PRES   REMARKS
COLUMBIA       NOT AVBL
JEFFERSON CITY CLOUDY    46  44  93 SE8       29.80F
6HR MIN TEMP:  44; 6HR MAX TEMP:  46;

ROLLA          CLOUDY    47  47 100 S8        29.78F
6HR MIN TEMP:  41; 6HR MAX TEMP:  47; 6HR PCP:  0.01;

SEDALIA        CLOUDY    49  46  90 SE6       29.80F
6HR MIN TEMP:  45; 6HR MAX TEMP:  49;

WARRENSBURG    CLOUDY    46  45  93 SE6       29.79F

$$
MOZ051-052-059>065-191900-
...EAST CENTRAL MISSOURI...

CITY           SKY/WX    TMP DP  RH WIND       PRES   REMARKS
ST LOUIS INTL  LGT RAIN  46  43  89 E7        29.84F FOG
6HR MIN TEMP:  43; 6HR MAX TEMP:  47; 6HR PCP:  0.06;

ST CHARLES     CLOUDY    45  44  97 E9        29.84F FOG

$$
MOZ072>076-082>087-097>100-106>115-191900-
...SOUTH CENTRAL AND SOUTHEAST MISSOURI...

CITY           SKY/WX    TMP DP  RH WIND       PRES   REMARKS
CAPE GIRARDEAU CLOUDY    49  47  93 E3        29.83F FOG
6HR MIN TEMP:  45; 6HR MAX TEMP:  49; 6HR PCP:  0.06;

FARMINGTON     LGT RAIN  48  46  93 S6        29.83F FOG
POPLAR BLUFF   FOG       48  48 100 N6        29.82F VSB 3/4
6HR MIN TEMP:  44; 6HR MAX TEMP:  48; 6HR PCP:  0.12;

WEST PLAINS    FOG       48  47  96 SE3       29.81F VSB 1/4
6HR MIN TEMP:  42; 6HR MAX TEMP:  48;


$$



USA.gov is the U.S. government's official web portal to all federal, state and local government web resources and services.